Location: Del Amo
(33.8464°N, 118.2104°W)
Time: 08:33:04
(UTC+00:00)

Vanguard 1 Rocket - Pass Details

Date: 14 September 2024
Orbit: 650 x 4218 km, 34.3° (Epoch: 09 October)

Event Time Altitude Azimuth Distance (km) Brightness Sun altitude
Rises 13:39:01 0° 266° (W) 6,215 - -0.2°
Exits shadow 13:39:06 - 266° (W) 6,197 10.9 -0.2°
Reaches altitude 10° 13:42:23 10° 267° (W) 5,571 10.7 0.5°
Maximum altitude 14:02:00 89° 359° (N) 3,947 10.7 4.6°
Drops below altitude 10° 14:28:49 10° 93° (E) 7,183 17.5 10.1°
Sets 14:33:56 0° 93° (E) 7,977 14.5 11.2°
